Hourly Data Report for June 23, 2012

All times are specified in Local Standard Time (LST). Add 1 hour to adjust for Daylight Saving Time where and when it is observed.

ABBOTSFORD A
BRITISH COLUMBIA

49°01'31.000" N
122°21'36.000" W
59.10 m
1100031
71108
YXX

Download Data

Hourly Data (June 2012)
Hourly Data Report for June 23, 2012
Temp Definition
°C
Dew Point Temp Definition
°C
Rel Hum Definition
%
Wind Dir Definition
10's deg

Wind Spd Definition
km/h
Visibility Definition
km
Stn Press Definition
kPa
Hmdx Definition


Wind Chill Definition


Weather Definition


TIME
00:00 11.8 11.7 99 18 6 4.8 99.87     Rain,Fog
01:00 11.7 11.6 99 17 8 4.0 99.94     Moderate Rain,Fog
02:00 11.7 11.4 98   0 4.8 99.96     Rain,Fog
03:00 12.0 11.5 97 34 5 6.4 99.97     Rain Showers,Fog
04:00 12.1 11.6 97   0 6.4 100.00     Fog
05:00 12.2 11.7 97 5 5 10.0 100.07     LegendNANA
06:00 12.8 11.9 94 5 11 10.0 100.08     LegendNANA
07:00 13.3 12.4 94 2 5 10.0 100.06     Mostly Cloudy
08:00 14.3 12.2 87 2 8 10.0 100.04     LegendNANA
09:00 15.2 12.4 83   0 10.0 100.04     LegendNANA
10:00 16.8 12.8 77 28 7 10.0 99.99     Mostly Cloudy
11:00 17.2 12.4 73 24 9 10.0 99.95     LegendNANA
12:00 17.6 12.8 73 23 15 10.0 99.92     LegendNANA
13:00 19.1 13.1 68 21 6 10.0 99.92     Mostly Cloudy
14:00 18.6 12.9 69 27 7 10.0 99.91     LegendNANA
15:00 17.3 12.5 73 22 26 9.7 99.97     Thunderstorms,Rain Showers
16:00 12.3 11.4 94 19 31 10.0 100.34     Thunderstorms,Rain Showers
17:00 12.0 10.3 89 19 27 10.0 100.49     Rain Showers
18:00 12.2 9.8 85 17 17 10.0 100.63     LegendNANA
19:00 12.1 9.2 82 18 19 10.0 100.69     Rain Showers
20:00 11.4 8.8 84 21 11 10.0 100.74     LegendNANA
21:00 11.2 9.0 86   0 10.0 100.80     LegendNANA
22:00 11.0 9.3 89 11 8 10.0 100.83     Cloudy
23:00 10.3 9.1 92   0 10.0 100.83     LegendNANA

Notes on Data Quality.

Legend

  • E = Estimated
  • M = Missing
  • NA = Not Available
Date modified: